Location: Unspecified
(29.9680°N, 0.0000°E)
Time: 10:32:51
(UTC+00:00)

Transit 2A - Visible Passes

Search period start: 17 June 2019 00:00
Search period end: 27 June 2019 00:00
Orbit: 593 x 966 km, 66.7° (Epoch: 16 June)

Date Brightness Start Highest point End Pass type
(mag) Time Alt. Az. Time Alt. Az. Time Alt. Az.
17 Jun 7.0 01:35:41 48° NW 01:35:41 48° NW 01:41:15 10° NNE visible
18 Jun 7.0 01:02:21 54° N 01:02:21 54° N 01:07:18 10° NNE visible
18 Jun 8.7 02:43:40 10° WNW 02:45:09 11° NW 02:46:39 10° NW visible
19 Jun 7.4 00:28:59 44° NE 00:28:59 44° NE 00:33:12 10° NNE visible
19 Jun 8.4 02:09:28 15° WNW 02:10:41 16° NW 02:14:26 10° NNW visible
19 Jun 7.8 23:55:34 31° NE 23:55:34 31° NE 23:58:57 10° NE visible
20 Jun 8.1 01:36:03 23° WNW 01:36:19 23° NW 01:41:11 10° N visible
20 Jun 8.2 23:22:07 22° ENE 23:22:07 22° ENE 23:24:30 10° NE visible
21 Jun 7.7 01:02:34 31° NW 01:02:34 31° NW 01:07:37 10° N visible
21 Jun 8.6 22:48:35 14° ENE 22:48:35 14° ENE 22:49:48 10° NE visible
22 Jun 7.5 00:29:03 41° NNW 00:29:03 41° NNW 00:33:50 10° NNE visible
22 Jun 7.3 23:55:28 45° N 23:55:28 45° N 23:59:56 10° NNE visible
23 Jun 7.4 23:21:50 42° NNE 23:21:50 42° NNE 23:25:52 10° NNE visible
24 Jun 8.6 01:02:17 14° WNW 01:03:25 15° NW 01:06:48 10° NNW visible
24 Jun 7.6 22:48:07 34° NE 22:48:07 34° NE 22:51:39 10° NNE visible
25 Jun 8.3 00:28:33 21° WNW 00:29:01 21° NW 00:33:41 10° N visible
25 Jun 7.9 22:14:18 26° ENE 22:14:18 26° ENE 22:17:15 10° NE visible
25 Jun 7.9 23:54:44 30° WNW 23:54:44 30° WNW 00:00:10 10° N visible
26 Jun 8.1 21:40:23 19° ENE 21:40:23 19° ENE 21:42:37 10° NE visible
26 Jun 7.4 23:20:49 42° NW 23:20:49 42° NW 23:26:26 10° N visible
